Lexington Weather

Lexington, Massachusetts, USA

53°F
10/17/2021 8:59pm 
  • Lexington Conditions: Partly cloudy
  • Temperature: 52.9°F / 11.6°CColder 1.1°F than last hour.
  • Dew Point: 47.5°FDecreased 0.5°Fsince last hour.
  • Relative Humidity: 82%Increased 2.0% since last hour.
  • Wind: Calm, 10-min avg: Calm, gust: 4 mph
  • Barometer: 29.67 in Steady
  • Visibility: 10 miles
  • Rain Today: 0.35 in
  •   

Regional Weather Roundup
for Boston / Norton, MA

        
000
ASUS41 KBOX 132004
RWRBOX

REGIONAL WEATHER ROUNDUP
NATIONAL WEATHER SERVICE BOSTON/NORTON MA
400 PM EDT WED OCT 13 2021

NOTE:  "FAIR" INDICATES FEW OR NO CLOUDS BELOW 12,000 FEET WITH NO 
SIGNIFICANT WEATHER AND/OR OBSTRUCTIONS TO VISIBILITY.

MAZALL-132100-
EASTERN MASSACHUSETTS
  
CITY           SKY/WX    TMP DP  RH WIND       PRES   REMARKS
BOSTON         MOSUNNY   75  56  51 SE7       29.94F                  
BEVERLY        SUNNY     73  59  61 SE10      29.93F                  
LAWRENCE       SUNNY     75  56  51 S8        29.95F                  
BEDFORD        SUNNY     75  58  55 S6        29.93F                  
BLUE HILL      NOT AVBL                                               
NORWOOD        SUNNY     76  55  48 S10       29.94S                  
MARSHFIELD     SUNNY     73  59  60 VRB5G12   29.95S                  
PLYMOUTH       SUNNY     72  58  61 SE7       29.96F                  
TAUNTON        SUNNY     74  57  55 VRB6      29.95F                  
NEW BEDFORD    SUNNY     72  58  61 S10       29.96S                  
$$

MAZALL-132100-
CAPE COD AND THE ISLANDS
  
CITY           SKY/WX    TMP DP  RH WIND       PRES   REMARKS
FALMOUTH       SUNNY     70  54  56 S9        29.98S                  
HYANNIS        SUNNY     68  60  75 S7        29.97S                  
CHATHAM        SUNNY     67  59  75 S6        30.00S                  
PROVINCETOWN   SUNNY     71  59  65 S8        29.97F                  
NANTUCKET      SUNNY     68  57  68 SW7       29.99S                  
MARTHAS VNYRD  SUNNY     69  58  67 S9        29.98F                  
$$
 
MAZALL-132100-
CENTRAL AND WESTERN MASSACHUSETTS
  
CITY           SKY/WX    TMP DP  RH WIND       PRES   REMARKS
WORCESTER      SUNNY     70  57  63 W9        29.97F                  
FITCHBURG      SUNNY     74  55  51 MISG      29.95F                  
ORANGE         SUNNY     69  56  62 S13       29.98S                  
SPRINGFIELD    PTSUNNY   67  57  71 S9        29.97S                  
WESTFIELD      CLOUDY    66  58  75 S7        29.97F                  
NORTH ADAMS    CLOUDY    68  58  70 VRB3      29.98R                  
PITTSFIELD     CLOUDY    64  57  78 VRB7      29.98S                  
$$
 
RIZALL-132100-
RHODE ISLAND
  
CITY           SKY/WX    TMP DP  RH WIND       PRES   REMARKS
PROVIDENCE     MOSUNNY   73  61  65 SE8       29.96F                  
NEWPORT        SUNNY     67  59  75 S12       29.97S                  
BLOCK ISLAND   SUNNY     69  58  67 SW7       29.99S                  
SMITHFIELD     MOSUNNY   71  60  68 CALM      29.97S                  
WESTERLY       SUNNY     70  60  70 S8        29.98S                  
$$
 
CTZALL-132100-
CONNECTICUT
  
CITY           SKY/WX    TMP DP  RH WIND       PRES   REMARKS
BRADLEY INTL   CLOUDY    67  59  75 CALM      29.97F                  
HARTFORD       CLOUDY    70  58  65 NW7       29.97S                  
BRIDGEPORT     CLOUDY    69  61  75 SW6       29.98S                  
DANBURY        CLOUDY    67  62  84 SW5       29.99F                  
GROTON         SUNNY     68  59  73 S8        29.97S                  
NEW HAVEN      CLOUDY    70  62  76 SW3       29.98S                  
CHESTER        PTSUNNY   70  59  68 VRB5      29.98S                  
MERIDEN        CLOUDY    69  58  67 CALM      29.97S                  
WILLIMANTIC    PTSUNNY   72  57  59 S6        29.96F                  
OXFORD         CLOUDY    64  61  90 CALM      30.00S                  
$$

MEZ002-015-021-024-NHZ003-005-008-011-012-014-VTZ005-008-132100-
NORTHERN NEW ENGLAND
  
CITY           SKY/WX    TMP DP  RH WIND       PRES   REMARKS
PORTLAND ME    MOSUNNY   70  55  59 S12       29.93S                  
BANGOR ME      PTSUNNY   75  61  61 S9        29.92S                  
CONCORD NH     SUNNY     76  56  49 S9        29.92F                  
MANCHESTER NH  MOSUNNY   76  56  49 S9        29.91F                  
NASHUA NH      SUNNY     75  60  59 VRB6      29.94F                  
PORTSMOUTH NH  SUNNY     74  56  53 SE9       29.94S                  
JAFFREY NH     SUNNY     71  55  56 SW8       29.97S                  
KEENE NH       SUNNY     73  58  59 S9        29.95S                  
BURLINGTON VT  PTSUNNY   72  60  66 W6        29.94S                  
MT. WASHINGTON MOSUNNY   55  45  67 W5          N/A                   
$$

NYZ052-076-132100-
EASTERN NEW YORK
  
CITY           SKY/WX    TMP DP  RH WIND       PRES   REMARKS
ALBANY         PTSUNNY   69  59  70 CALM      29.98S                  
NEW YORK CITY  CLOUDY    70  60  70 SW6       29.97S                  
$$
 
ANZALL-132100-
MARINE OBSERVATIONS
  
STATION/POSITION TIME  TEMP    WIND        PRES    VSBY  WAVE
                       AIR SEA DIR/SP/G                  HT/PER
                 (UTC) (F)     (DEG/KT/KT) (MB)    (MI)  (FT/S)
BOSTON BUOY      1940      64  140/  8/ 10 1014.4F
BUZZARDS BAY     1900          210/  9/  9 1016.3F
NANTUCKET SOUND  1950   67     200/ 10/ 12   N/A           1
MASS BAY-STELLWA 1904   64     160/ 10/ 12 1013.6F  1 3/4  3/ 8
ISLE OF SHOALS   1900   65     150/ 14/ 15 1013.4F
S OF BLOCK IS    1926      66                N/A           4/ 8
$$

......................KEY.........................
  SKY/WX - SKY CONDITION/PRESENT WEATHER
  TMP    - TEMPERATURE IN FAHRENHEIT
  DWPT   - DEWPOINT IN FAHRENHEIT
  RH     - RELATIVE HUMIDITY IN PERCENT
  WIND   - DIRECTION AND SPEED IN MPH
  PRES   - MEAN SEA LEVEL PRESSURE IN INCHES OF HG
  WCI    - WIND CHILL INDEX
  VSB    - VISIBILITY IN MILES
  HX     - HEAT INDEX
  TC     - TEMPERATURE IN CELSIUS
  VRB    - VARIABLE WIND DIRECTION
  N/A    - NOT AVAILABLE
  
      

Other recent Regional Weather Roundups

Sun Oct 17, 8:04pm

Sun Oct 17, 7:04pm

Sun Oct 17, 6:04pm

Sun Oct 17, 5:04pm

Sun Oct 17, 4:04pm

Sun Oct 17, 3:04pm

Sun Oct 17, 2:04pm

Sun Oct 17, 1:04pm

Sun Oct 17, 12:04pm

Sun Oct 17, 11:04am

Sun Oct 17, 10:04am

Sun Oct 17, 9:04am

Sun Oct 17, 8:04am

Sun Oct 17, 7:04am

Sun Oct 17, 6:04am

Sun Oct 17, 5:04am

Sun Oct 17, 4:04am

Sun Oct 17, 3:04am

Sun Oct 17, 2:04am

Sun Oct 17, 1:04am

Sun Oct 17, 12:04am

Sat Oct 16, 11:04pm

Sat Oct 16, 10:04pm

Sat Oct 16, 9:04pm

Sat Oct 16, 8:04pm

Sat Oct 16, 7:04pm

Sat Oct 16, 6:04pm

Sat Oct 16, 5:04pm

Sat Oct 16, 4:04pm

Sat Oct 16, 3:04pm

Sat Oct 16, 2:04pm

Sat Oct 16, 1:04pm

Sat Oct 16, 12:04pm

Sat Oct 16, 11:04am

Sat Oct 16, 10:04am

Sat Oct 16, 9:04am

Sat Oct 16, 8:04am

Sat Oct 16, 7:04am

Sat Oct 16, 6:04am

Sat Oct 16, 5:04am

Sat Oct 16, 4:04am

Sat Oct 16, 3:04am

Sat Oct 16, 2:04am

Sat Oct 16, 1:04am

Sat Oct 16, 12:04am

Fri Oct 15, 11:04pm

Fri Oct 15, 10:04pm

Fri Oct 15, 9:04pm

Fri Oct 15, 8:04pm

Fri Oct 15, 7:04pm

Fri Oct 15, 6:04pm

Fri Oct 15, 5:04pm

Fri Oct 15, 4:04pm

Fri Oct 15, 3:04pm

Fri Oct 15, 2:05pm

Fri Oct 15, 1:05pm

Fri Oct 15, 12:04pm

Fri Oct 15, 11:05am

Fri Oct 15, 10:04am

Fri Oct 15, 9:04am

Fri Oct 15, 8:04am

Fri Oct 15, 7:04am

Fri Oct 15, 6:04am

Fri Oct 15, 5:04am

Fri Oct 15, 4:04am

Fri Oct 15, 3:05am

Fri Oct 15, 2:04am

Fri Oct 15, 1:04am

Fri Oct 15, 12:04am

Thu Oct 14, 11:04pm

Thu Oct 14, 10:04pm

Thu Oct 14, 9:04pm

Thu Oct 14, 8:04pm

Thu Oct 14, 7:04pm

Thu Oct 14, 6:04pm

Thu Oct 14, 5:04pm

Thu Oct 14, 4:04pm

Thu Oct 14, 3:04pm

Thu Oct 14, 2:04pm

Thu Oct 14, 1:04pm

Thu Oct 14, 12:04pm

Thu Oct 14, 11:04am

Thu Oct 14, 10:04am

Thu Oct 14, 9:04am

Thu Oct 14, 8:04am

Thu Oct 14, 7:04am

Thu Oct 14, 6:04am

Thu Oct 14, 5:04am

Thu Oct 14, 4:04am

Thu Oct 14, 3:04am

Thu Oct 14, 2:04am

Thu Oct 14, 1:04am

Thu Oct 14, 12:04am

Wed Oct 13, 11:04pm

Wed Oct 13, 10:04pm

Wed Oct 13, 9:04pm

Wed Oct 13, 8:04pm

Wed Oct 13, 7:04pm

Wed Oct 13, 6:04pm

Wed Oct 13, 5:04pm

Wed Oct 13, 3:04pm

Wed Oct 13, 2:04pm

Wed Oct 13, 1:04pm

Wed Oct 13, 12:04pm

Wed Oct 13, 11:04am

Wed Oct 13, 10:04am

Wed Oct 13, 9:04am

Wed Oct 13, 8:04am

Wed Oct 13, 7:04am

Wed Oct 13, 6:04am

Wed Oct 13, 5:04am

Wed Oct 13, 4:04am

Wed Oct 13, 3:04am

Wed Oct 13, 2:04am

Wed Oct 13, 1:04am

Wed Oct 13, 12:04am

Tue Oct 12, 11:04pm

Tue Oct 12, 10:04pm

Tue Oct 12, 9:04pm

Tue Oct 12, 8:04pm

Tue Oct 12, 7:04pm

Tue Oct 12, 6:04pm

Tue Oct 12, 5:04pm

Tue Oct 12, 4:04pm

Tue Oct 12, 3:04pm

Tue Oct 12, 2:04pm

Tue Oct 12, 1:04pm

Tue Oct 12, 12:04pm

Tue Oct 12, 11:05am

Tue Oct 12, 10:04am

Tue Oct 12, 9:04am

Tue Oct 12, 8:04am

Tue Oct 12, 7:04am

Tue Oct 12, 6:04am

Tue Oct 12, 5:04am

Tue Oct 12, 4:04am

Tue Oct 12, 3:04am

Tue Oct 12, 2:04am

Tue Oct 12, 1:04am

Tue Oct 12, 12:04am

Mon Oct 11, 11:04pm

Mon Oct 11, 10:04pm

Mon Oct 11, 9:04pm

Mon Oct 11, 8:04pm

Mon Oct 11, 7:04pm

Mon Oct 11, 6:04pm

Mon Oct 11, 5:04pm

Mon Oct 11, 4:04pm

Mon Oct 11, 3:04pm

Mon Oct 11, 2:04pm

Mon Oct 11, 1:04pm

Mon Oct 11, 12:04pm

Mon Oct 11, 11:04am

Mon Oct 11, 10:04am

Mon Oct 11, 9:04am

Mon Oct 11, 8:04am

Mon Oct 11, 7:04am

Mon Oct 11, 6:04am

Mon Oct 11, 5:04am

Mon Oct 11, 4:04am

Mon Oct 11, 3:04am

Mon Oct 11, 2:04am

Mon Oct 11, 1:04am

Mon Oct 11, 12:05am

Sun Oct 10, 11:04pm

Sun Oct 10, 10:04pm

Sun Oct 10, 9:04pm

Meta data:

ID: f08e09b2-89bc-49df-92f1-510636a56583
Link: https://api.weather.gov/products/f08e09b2-89bc-49df-92f1-510636a56583